Weather History for Dalton, GA

Change the Weather History Date:

Sunday, February 17, 2013

  Actual Average Record
Temperature  
Mean Temperature 30 °F -  
Max Temperature 42 °F 54 °F 74 °F (1961)
Min Temperature 17 °F 31 °F 1 °F (1958)
Degree Days  
Heating Degree Days 36    
Moisture  
Dew Point 18 °F    
Average Humidity 62    
Maximum Humidity 100    
Minimum Humidity 31    
Precipitation  
Precipitation 0.00 in - - ()
Sea Level Pressure  
Sea Level Pressure 30.24 in    
Wind  
Wind Speed 3 mph (NW)    
Max Wind Speed 13 mph    
Max Gust Speed 17 mph    
Visibility 10 miles    
Events      
Averages and records for this station are not official NWS values.
T = Trace of Precipitation, MM = Missing Value Source: NWS Daily Summary

Daily Weather History Graph

Daily Weather History Graph

Search for Another Location

Airport:

Trip Planner

Search our weather history database for the weather conditions in past years. The results will help you decide how hot, cold, wet, or windy it might be!

Date:

Astronomy

Feb. 17, 2013 Rise Set
Actual Time 7:22 AM EST 6:24 PM EST
Civil Twilight 6:56 AM EST 6:50 PM EST
Nautical Twilight 6:27 AM EST 7:19 PM EST
Astronomical Twilight 5:58 AM EST 7:49 PM EST
Moon 11:34 AM EST 1:01 AM EST
Length of Visible Light 11h 53m
Length of Day
11h 02m
Waxing Crescent, 49% of the Moon is Illuminated
Feb 17
Waxing Crescent
Feb 17
First Quarter
Feb 25
Full
Mar 4
Last Quarter
Mar 11
New

Hourly Weather History & Observations

Time (EST) Temp. Windchill Dew Point Humidity Pressure Visibility Wind Dir Wind Speed Gust Speed Precip Events Conditions
12:15 AM 28.4 °F 22.2 °F 17.6 °F 64% 30.18 in 10.0 mi NNW 5.8 mph - N/A   Clear
12:35 AM 26.6 °F 21.2 °F 17.6 °F 69% 30.18 in 10.0 mi NW 4.6 mph - N/A   Scattered Clouds
12:55 AM 26.6 °F 20.0 °F 15.8 °F 64% 30.18 in 10.0 mi NW 5.8 mph - N/A   Clear
1:15 AM 26.6 °F 22.6 °F 15.8 °F 64% 30.18 in 10.0 mi NW 3.5 mph - N/A   Scattered Clouds
1:35 AM 28.4 °F - 14.0 °F 55% 30.19 in 10.0 mi Calm Calm - N/A   Scattered Clouds
1:55 AM 28.4 °F - 14.0 °F 55% 30.20 in 10.0 mi Calm Calm - N/A   Clear
2:15 AM 26.6 °F - 14.0 °F 59% 30.20 in 10.0 mi Calm Calm - N/A   Scattered Clouds
2:35 AM 24.8 °F - 14.0 °F 64% 30.20 in 10.0 mi Calm Calm - N/A   Scattered Clouds
2:55 AM 23.0 °F - 14.0 °F 68% 30.20 in 10.0 mi Calm Calm - N/A   Clear
3:15 AM 23.0 °F - 15.8 °F 74% 30.20 in 10.0 mi Calm Calm - N/A   Clear
3:35 AM 23.0 °F - 14.0 °F 68% 30.20 in 10.0 mi Calm Calm - N/A   Clear
3:55 AM 23.0 °F - 17.6 °F 80% 30.20 in 10.0 mi Calm Calm - N/A   Scattered Clouds
4:15 AM 21.2 °F - 17.6 °F 86% 30.21 in 10.0 mi Calm Calm - N/A   Scattered Clouds
4:35 AM 21.2 °F - 19.4 °F 93% 30.21 in 10.0 mi Calm Calm - N/A   Clear
4:55 AM 21.2 °F - 19.4 °F 93% 30.21 in 10.0 mi Calm Calm - N/A   Scattered Clouds
5:15 AM 21.2 °F - 17.6 °F 86% 30.21 in 10.0 mi Calm Calm - N/A   Scattered Clouds
5:35 AM 21.2 °F - 17.6 °F 86% 30.22 in 10.0 mi Calm Calm - N/A   Scattered Clouds
5:55 AM 19.4 °F - 17.6 °F 93% 30.22 in 10.0 mi Calm Calm - N/A   Scattered Clouds
6:15 AM 19.4 °F - 19.4 °F 100% 30.22 in 10.0 mi Calm Calm - N/A   Scattered Clouds
6:35 AM 19.4 °F - 17.6 °F 93% 30.23 in 10.0 mi Calm Calm - N/A   Scattered Clouds
6:55 AM 19.4 °F - 17.6 °F 93% 30.24 in 10.0 mi Calm Calm - N/A   Scattered Clouds
7:15 AM 19.4 °F - 17.6 °F 93% 30.24 in 10.0 mi Calm Calm - N/A   Scattered Clouds
7:35 AM 17.6 °F - 17.6 °F 100% 30.25 in 10.0 mi Calm Calm - N/A   Clear
7:55 AM 19.4 °F - 19.4 °F 100% 30.25 in 10.0 mi Calm Calm - N/A   Clear
8:15 AM 21.2 °F - 21.2 °F 100% 30.27 in 10.0 mi Calm Calm - N/A   Clear
8:35 AM 23.0 °F - 19.4 °F 86% 30.28 in 10.0 mi Calm Calm - N/A   Clear
8:55 AM 26.6 °F - 21.2 °F 80% 30.28 in 10.0 mi Calm Calm - N/A   Clear
9:15 AM 30.2 °F - 21.2 °F 69% 30.29 in 10.0 mi Calm Calm - N/A   Clear
9:35 AM 32.0 °F - 19.4 °F 60% 30.29 in 10.0 mi Calm Calm - N/A   Clear
9:55 AM 32.0 °F 24.8 °F 15.8 °F 51% 30.29 in 10.0 mi NNW 8.1 mph - N/A   Clear
10:15 AM 32.0 °F 26.4 °F 14.0 °F 48% 30.30 in 10.0 mi WNW 5.8 mph - N/A   Clear
10:35 AM 33.8 °F 26.4 °F 15.8 °F 48% 30.30 in 10.0 mi NW 9.2 mph - N/A   Clear
10:55 AM 35.6 °F 29.9 °F 15.8 °F 44% 30.30 in 10.0 mi NW 6.9 mph - N/A   Clear
11:15 AM 35.6 °F - 15.8 °F 44% 30.30 in 10.0 mi Calm Calm - N/A   Clear
11:35 AM 37.4 °F 29.3 °F 15.8 °F 41% 30.30 in 10.0 mi NNW 12.7 mph 16.1 mph N/A   Clear
11:55 AM 37.4 °F 30.8 °F 14.0 °F 38% 30.30 in 10.0 mi WNW 9.2 mph 17.3 mph N/A   Clear
12:15 PM 37.4 °F 29.3 °F 15.8 °F 41% 30.29 in 10.0 mi NW 12.7 mph 16.1 mph N/A   Clear
12:35 PM 37.4 °F 29.8 °F 15.8 °F 41% 30.28 in 10.0 mi NNW 11.5 mph - N/A   Clear
12:55 PM 39.2 °F 32.0 °F 14.0 °F 36% 30.27 in 10.0 mi WNW 11.5 mph - N/A   Clear
1:15 PM 41.0 °F 34.7 °F 14.0 °F 33% 30.27 in 10.0 mi NW 10.4 mph - N/A   Clear
1:55 PM 41.0 °F 35.8 °F 17.6 °F 39% 30.24 in 10.0 mi NW 8.1 mph - N/A   Clear
2:15 PM 42.8 °F 37.5 °F 14.0 °F 31% 30.24 in 10.0 mi NW 9.2 mph - N/A   Clear
2:35 PM 42.8 °F 37.5 °F 15.8 °F 34% 30.23 in 10.0 mi NW 9.2 mph - N/A   Clear
2:55 PM 42.8 °F 38.0 °F 14.0 °F 31% 30.23 in 10.0 mi WNW 8.1 mph - N/A   Clear
3:15 PM 42.8 °F 37.5 °F 15.8 °F 34% 30.22 in 10.0 mi WNW 9.2 mph - N/A   Clear
3:35 PM 42.8 °F 39.3 °F 15.8 °F 34% 30.22 in 10.0 mi West 5.8 mph - N/A   Clear
3:55 PM 42.8 °F 40.1 °F 15.8 °F 34% 30.22 in 10.0 mi NW 4.6 mph - N/A   Clear
4:15 PM 42.8 °F 39.3 °F 15.8 °F 34% 30.22 in 10.0 mi WSW 5.8 mph - N/A   Clear
4:35 PM 42.8 °F 38.6 °F 15.8 °F 34% 30.22 in 10.0 mi West 6.9 mph - N/A   Clear
4:55 PM 42.8 °F 41.1 °F 17.6 °F 36% 30.22 in 10.0 mi NW 3.5 mph - N/A   Clear
5:15 PM 42.8 °F 39.3 °F 17.6 °F 36% 30.22 in 10.0 mi NW 5.8 mph - N/A   Clear
5:35 PM 42.8 °F - 17.6 °F 36% 30.22 in 10.0 mi Calm Calm - N/A   Clear
5:55 PM 42.8 °F - 15.8 °F 34% 30.22 in 10.0 mi Calm Calm - N/A   Clear
6:15 PM 41.0 °F - 17.6 °F 39% 30.23 in 10.0 mi Calm Calm - N/A   Clear
6:35 PM 41.0 °F - 17.6 °F 39% 30.23 in 10.0 mi Calm Calm - N/A   Clear
6:55 PM 37.4 °F - 19.4 °F 48% 30.23 in 10.0 mi Calm Calm - N/A   Clear
7:15 PM 35.6 °F - 21.2 °F 56% 30.23 in 10.0 mi Calm Calm - N/A   Clear
7:35 PM 33.8 °F - 21.2 °F 60% 30.23 in 10.0 mi Calm Calm - N/A   Clear
7:55 PM 32.0 °F - 23.0 °F 69% 30.24 in 10.0 mi Calm Calm - N/A   Clear
8:15 PM 32.0 °F - 24.8 °F 75% 30.24 in 10.0 mi Calm Calm - N/A   Clear
8:35 PM 32.0 °F - 23.0 °F 69% 30.25 in 10.0 mi Calm Calm - N/A   Clear
8:55 PM 32.0 °F - 23.0 °F 69% 30.25 in 10.0 mi Calm Calm - N/A   Clear
9:15 PM 32.0 °F - 23.0 °F 69% 30.26 in 10.0 mi Calm Calm - N/A   Clear
9:35 PM 30.2 °F - 21.2 °F 69% 30.27 in 10.0 mi Calm Calm - N/A   Clear
9:55 PM 30.2 °F - 24.8 °F 80% 30.26 in 10.0 mi Calm Calm - N/A   Clear
10:15 PM 30.2 °F - 23.0 °F 75% 30.27 in 10.0 mi Calm Calm - N/A   Clear
10:35 PM 30.2 °F - 23.0 °F 75% 30.27 in 10.0 mi Calm Calm - N/A   Clear
10:55 PM 30.2 °F - 24.8 °F 80% 30.27 in 10.0 mi Calm Calm - N/A   Clear
11:15 PM 28.4 °F - 23.0 °F 80% 30.27 in 10.0 mi Calm Calm - N/A   Clear
11:35 PM 28.4 °F - 23.0 °F 80% 30.27 in 10.0 mi Calm Calm - N/A   Clear
11:55 PM 28.4 °F - 24.8 °F 86% 30.28 in 10.0 mi Calm Calm - N/A   Clear